Location: Bidwell Hollow
(37.7387°N, 90.1707°W)
Time: 23:08:07
(UTC+00:00)

Altair - Pass Details

Date: 21 May 2026
Orbit: 1501 x 1682 km, 47.2° (Epoch: 6 June)

Event Time Altitude Azimuth Distance (km) Brightness Sun altitude
Exits shadow 08:18:54 34° 197° (SSW) 2,416 8.0 -23.2°
Maximum altitude 08:23:17 57° 137° (SE) 1,863 7.8 -22.6°
Drops below altitude 10° 08:32:58 10° 62° (ENE) 3,915 10.6 -21.5°
Sets 08:36:14 0° 59° (ENE) 4,919 11.4 -21.0°
